Weather History for Marshfield, MA

Change the Weather History Date:

Sunday, December 9, 2012

  Actual Average (KPYM) Record (KPYM)
Temperature  
Mean Temperature 44 °F -  
Max Temperature 48 °F 44 °F 64 °F (1991)
Min Temperature 41 °F 25 °F 6 °F (2000)
Degree Days  
Heating Degree Days 20    
Moisture  
Dew Point 39 °F    
Average Humidity 79    
Maximum Humidity 100    
Minimum Humidity 57    
Precipitation  
Precipitation 0.00 in - - ()
Sea Level Pressure  
Sea Level Pressure 30.19 in    
Wind  
Wind Speed 5 mph (NNW)    
Max Wind Speed 13 mph    
Max Gust Speed 20 mph    
Visibility 8 miles    
Events Rain    
Averages and records for this station are not official NWS values.
T = Trace of Precipitation, MM = Missing Value Source: NWS Daily Summary

Daily Weather History Graph

Daily Weather History Graph

Search for Another Location

Airport:

Trip Planner

Search our weather history database for the weather conditions in past years. The results will help you decide how hot, cold, wet, or windy it might be!

Date:

Astronomy

Dec. 09, 2012 Rise Set
Actual Time 6:59 AM EST 4:10 PM EST
Civil Twilight 6:28 AM EST 4:42 PM EST
Nautical Twilight 5:52 AM EST 5:17 PM EST
Astronomical Twilight 5:18 AM EST 5:51 PM EST
Moon 2:25 AM EST (12/9) 1:18 PM EST (12/9)
Length of Visible Light 10h 14m
Length of Day
9h 11m
Waning Crescent, 19% of the Moon is Illuminated
Dec 9
Waning Crescent
Dec 13
New
Dec 20
First Quarter
Dec 28
Full
Jan 4
Last Quarter

Hourly Weather History & Observations

Time (EST) Temp. Windchill Dew Point Humidity Pressure Visibility Wind Dir Wind Speed Gust Speed Precip Events Conditions
12:15 AM 46.4 °F 45.2 °F 46.4 °F 100% 29.97 in 5.0 mi SW 3.5 mph - N/A   Light Drizzle
12:35 AM 46.4 °F 45.2 °F 46.4 °F 100% 29.97 in 5.0 mi SW 3.5 mph - N/A   Light Drizzle
12:55 AM 46.4 °F 45.2 °F 46.4 °F 100% 29.98 in 5.0 mi WSW 3.5 mph - N/A   Light Drizzle
1:15 AM 46.4 °F 45.2 °F 46.4 °F 100% 29.99 in 7.0 mi WSW 3.5 mph - N/A   Light Drizzle
1:35 AM 46.4 °F 44.3 °F 46.4 °F 100% 30.00 in 6.0 mi SW 4.6 mph - N/A   Light Drizzle
2:15 AM 46.4 °F - 46.4 °F 100% 30.02 in 5.0 mi Calm Calm - N/A   Light Drizzle
2:35 AM 46.4 °F 45.2 °F 46.4 °F 100% 30.03 in 4.0 mi SW 3.5 mph - N/A   Light Drizzle
2:55 AM 46.4 °F 45.2 °F 44.6 °F 93% 30.04 in 5.0 mi SW 3.5 mph - N/A   Drizzle
3:15 AM 46.4 °F 45.2 °F 44.6 °F 93% 30.04 in 4.0 mi SW 3.5 mph - N/A   Drizzle
3:35 AM 44.6 °F 43.1 °F 44.6 °F 100% 30.05 in 3.0 mi WSW 3.5 mph - N/A   Drizzle
3:55 AM 44.6 °F 43.1 °F 44.6 °F 100% 30.06 in 2.5 mi WSW 3.5 mph - N/A   Drizzle
4:15 AM 44.6 °F 43.1 °F 44.6 °F 100% 30.07 in 5.0 mi WSW 3.5 mph - N/A   Drizzle
4:35 AM 44.6 °F - 42.8 °F 93% 30.07 in 2.5 mi Calm Calm - N/A   Drizzle
4:55 AM 42.8 °F 41.1 °F 41.0 °F 93% 30.08 in 1.2 mi SW 3.5 mph - N/A   Drizzle
5:15 AM 42.8 °F 41.1 °F 41.0 °F 93% 30.09 in 2.0 mi WSW 3.5 mph - N/A   Drizzle
5:35 AM 41.0 °F 39.0 °F 41.0 °F 100% 30.11 in 2.5 mi WSW 3.5 mph - N/A   Heavy Drizzle
5:55 AM 42.8 °F 39.3 °F 41.0 °F 93% 30.12 in 8.0 mi West 5.8 mph - N/A   Heavy Drizzle
6:15 AM 42.8 °F 39.3 °F 42.8 °F 100% 30.14 in 10.0 mi West 5.8 mph - N/A   Heavy Drizzle
6:55 AM 44.6 °F 40.2 °F 42.8 °F 93% 30.16 in 10.0 mi WNW 8.1 mph - N/A   Light Drizzle
7:15 AM 44.6 °F 40.2 °F 41.0 °F 87% 30.17 in 10.0 mi WNW 8.1 mph - N/A   Light Drizzle
7:35 AM 44.6 °F 40.7 °F 41.0 °F 87% 30.19 in 10.0 mi WNW 6.9 mph - N/A   Light Drizzle
7:55 AM 46.4 °F 43.5 °F 41.0 °F 81% 30.20 in 10.0 mi WNW 5.8 mph - N/A   Light Drizzle
8:15 AM 46.4 °F 44.3 °F 39.2 °F 76% 30.21 in 10.0 mi WNW 4.6 mph - N/A   Light Drizzle
8:35 AM 48.2 °F - 39.2 °F 71% 30.23 in 10.0 mi NW 5.8 mph - N/A   Clear
8:55 AM 48.2 °F - 37.4 °F 66% 30.24 in 10.0 mi NW 5.8 mph - N/A   Clear
9:55 AM 48.2 °F - 37.4 °F 66% 30.26 in 10.0 mi NW 10.4 mph - N/A   Unknown
10:15 AM 48.2 °F - 37.4 °F 66% 30.27 in 10.0 mi NNW 10.4 mph - N/A   Clear
10:35 AM 48.2 °F - 35.6 °F 62% 30.26 in 10.0 mi NNW 11.5 mph 16.1 mph N/A   Clear
10:55 AM 46.4 °F 41.1 °F 35.6 °F 66% 30.25 in 10.0 mi NNW 11.5 mph 17.3 mph N/A   Clear
11:15 AM 46.4 °F 41.1 °F 35.6 °F 66% 30.25 in 10.0 mi NNW 11.5 mph - N/A   Clear
11:35 AM 46.4 °F 41.9 °F 35.6 °F 66% 30.25 in 10.0 mi NNW 9.2 mph - N/A   Clear
11:55 AM 46.4 °F 42.9 °F 35.6 °F 66% 30.25 in 10.0 mi North 6.9 mph - N/A   Clear
12:15 PM 46.4 °F 41.5 °F 35.6 °F 66% 30.24 in 10.0 mi North 10.4 mph - N/A   Clear
12:35 PM 46.4 °F 42.4 °F 32.0 °F 57% 30.25 in 10.0 mi NNW 8.1 mph - N/A   Clear
12:55 PM 46.4 °F 43.5 °F 32.0 °F 57% 30.25 in 10.0 mi NNW 5.8 mph - N/A   Clear
1:15 PM 44.6 °F 42.2 °F 32.0 °F 61% 30.25 in 10.0 mi North 4.6 mph - N/A   Clear
1:35 PM 44.6 °F 41.4 °F 32.0 °F 61% 30.25 in 10.0 mi NNW 5.8 mph - N/A   Clear
1:55 PM 44.6 °F 40.7 °F 32.0 °F 61% 30.25 in 10.0 mi NNW 6.9 mph - N/A   Clear
2:15 PM 44.6 °F 42.2 °F 32.0 °F 61% 30.27 in 10.0 mi NW 4.6 mph - N/A   Clear
2:35 PM 44.6 °F 43.1 °F 33.8 °F 66% 30.27 in 10.0 mi NNW 3.5 mph - N/A   Clear
2:55 PM 44.6 °F 43.1 °F 33.8 °F 66% 30.28 in 10.0 mi NNW 3.5 mph - N/A   Clear
3:35 PM 44.6 °F 42.2 °F 33.8 °F 66% 30.28 in 10.0 mi North 4.6 mph - N/A   Clear
3:55 PM 44.6 °F - 33.8 °F 66% 30.29 in 10.0 mi Calm Calm - N/A   Clear
4:15 PM 44.6 °F 43.1 °F 35.6 °F 71% 30.29 in 10.0 mi North 3.5 mph - N/A   Clear
4:35 PM 42.8 °F - 35.6 °F 76% 30.29 in 10.0 mi Calm Calm - N/A   Clear
4:55 PM 41.0 °F 39.0 °F 35.6 °F 81% 30.28 in 10.0 mi NE 3.5 mph - N/A   Clear
5:15 PM 44.6 °F 40.7 °F 35.6 °F 71% 30.29 in 10.0 mi ENE 6.9 mph - N/A   Clear
5:35 PM 44.6 °F 41.4 °F 35.6 °F 71% 30.29 in 10.0 mi East 5.8 mph - N/A   Partly Cloudy
5:55 PM 46.4 °F 43.5 °F 35.6 °F 66% 30.29 in 10.0 mi ENE 5.8 mph - N/A   Mostly Cloudy
6:15 PM 46.4 °F 42.4 °F 37.4 °F 71% 30.29 in 10.0 mi ENE 8.1 mph - N/A   Mostly Cloudy
6:55 PM 46.4 °F 42.9 °F 37.4 °F 71% 30.30 in 10.0 mi ENE 6.9 mph - N/A   Overcast
7:15 PM 46.4 °F 42.4 °F 37.4 °F 71% 30.30 in 10.0 mi East 8.1 mph - N/A   Mostly Cloudy
7:35 PM 46.4 °F 43.5 °F 37.4 °F 71% 30.30 in 10.0 mi ENE 5.8 mph - N/A   Scattered Clouds
7:55 PM 46.4 °F 43.5 °F 35.6 °F 66% 30.29 in 10.0 mi ENE 5.8 mph - N/A   Partly Cloudy
8:15 PM 46.4 °F 42.9 °F 35.6 °F 66% 30.28 in 10.0 mi ENE 6.9 mph - N/A Rain Light Rain
8:35 PM 44.6 °F 40.2 °F 37.4 °F 76% 30.27 in 10.0 mi ENE 8.1 mph - N/A   Scattered Clouds
8:55 PM 46.4 °F 41.9 °F 37.4 °F 71% 30.26 in 10.0 mi East 9.2 mph - N/A   Mostly Cloudy
9:35 PM 46.4 °F 41.9 °F 37.4 °F 71% 30.25 in 10.0 mi East 9.2 mph - N/A   Light Drizzle
9:55 PM 44.6 °F 39.7 °F 37.4 °F 76% 30.24 in 10.0 mi East 9.2 mph - N/A   Light Drizzle
10:15 PM 44.6 °F 39.7 °F 39.2 °F 81% 30.24 in 10.0 mi East 9.2 mph - N/A   Light Drizzle
10:35 PM 44.6 °F 39.7 °F 39.2 °F 81% 30.23 in 10.0 mi East 9.2 mph 16.1 mph N/A   Overcast
10:55 PM 44.6 °F 38.4 °F 39.2 °F 81% 30.22 in 9.0 mi ESE 12.7 mph 19.6 mph N/A Rain Light Rain
11:15 PM 44.6 °F 38.4 °F 41.0 °F 87% 30.20 in 7.0 mi East 12.7 mph 18.4 mph N/A   Overcast
11:35 PM 44.6 °F 38.4 °F 42.8 °F 93% 30.19 in 2.0 mi ESE 12.7 mph 18.4 mph N/A   Light Drizzle
11:55 PM 44.6 °F 39.7 °F 42.8 °F 93% 30.18 in 10.0 mi East 9.2 mph - N/A Rain Light Rain